Regional Weather Roundup
Issued by NWS

Home | Current Version | Previous Version | Text Only | Print | Product List | Glossary Off
Versions: 1 2 3 4 5 6 7 8 9 10 11 12 13 14 15 16 17 18 19 20 21 22 23 24 25 26 27 28 29 30 31 32 33 34 35 36 37 38 39 40 41 42 43 44 45 46 47 48 49 50

000
ASUS43 KIND 262009
RWRIN

WEATHER ROUNDUP FOR INDIANA
NATIONAL WEATHER SERVICE INDIANAPOLIS IN
300 PM EST THU FEB 26 2015

NOTE: "FAIR" INDICATES FEW OR NO CLOUDS BELOW 12,000 FEET WITH NO
SIGNIFICANT WEATHER AND/OR OBSTRUCTIONS TO VISIBILITY.

* - STATION DOES NOT REPORT WEATHER SUCH AS PRECIPITATION OR FOG.

+ - STATION NOT QUALITY CONTROLLED BY THE NATIONAL WEATHER SERVICE.
    USE DATA WITH CAUTION...ESPECIALLY DEWPOINT AND RELATIVE
    HUMIDITY OBSERVATIONS.

INZ001>003-010>013-019-020-262100-
NORTHWEST INDIANA

CITY           SKY/WX    TMP DP  RH WIND       PRES   REMARKS
GARY /AIRPORT/ LGT SNOW  19   7  58 N12G23    30.24S WCI   7
KNOX *+          N/A     18  -9  29 N17       30.20R WCI   2
LA PORTE +     SUNNY     17   6  62 N16       30.21R WCI   2
MICHIGAN CITY+ MOSUNNY   16   0  48 N12G21    30.23S WCI   3
MONTICELLO +   CLOUDY    18  10  71 N10       30.19R WCI   6
RENSSELAER +   PTSUNNY   19   9  63 N14       30.21R WCI   6
VALPARAISO     MIX PCPN  17   4  56 NE10      30.22R WCI   5

$$

LMZ046-743>745-262100-
SOUTHERN LAKE MICHIGAN

STATION/POSITION TIME  TEMP WIND        PRES
                       AIR  DIR/SP/G
                 (UTC) (F)  (DEG/KT/KT) (MB)
MICHIGAN CITY    2000   14   10/ 15/ 20   N/A

$$

INZ004-005-014>016-021>024-262100-
NORTH CENTRAL INDIANA

CITY           SKY/WX    TMP DP  RH WIND       PRES   REMARKS
ELKHART        PTSUNNY   18   0  45 N6        30.18S WCI   9
GOSHEN         CLOUDY    17   6  62 NW12      30.16S WCI   4
LOGANSPORT +   CLOUDY    19   9  63 N9        30.19R WCI   9
PERU/GRISSOM   FLURRIES  18  10  68 N9        30.16R WCI   7
ROCHESTER +    PTSUNNY   21  10  63 N8        30.19R WCI  12
SOUTH BEND     SUNNY     16  -1  47 N16       30.20R WCI   1
WARSAW +       FAIR      18   7  62 N8        30.17R HAZE    WCI   7

$$

INZ006>009-017-018-025>027-262100-
NORTHEAST INDIANA

CITY           SKY/WX    TMP DP  RH WIND       PRES   REMARKS
ANGOLA *+      MOSUNNY   14   0  52 N9        30.15R WCI   2
AUBURN +       PTSUNNY   19   7  58 NW5       30.16R WCI  13
FORT WAYNE     CLOUDY    18   5  57 NW6       30.16R WCI  10
HUNTINGTON +   CLOUDY    17   2  52 N7        30.16R WCI   8

$$

INZ028-029-035-036-043>045-051>053-262100-
WEST CENTRAL INDIANA

CITY           SKY/WX    TMP DP  RH WIND       PRES   REMARKS
CRAWFORDSVL +  CLOUDY    18   6  58 N9        30.16R WCI   7
GREENCASTLE +  CLOUDY    19   9  63 NE9       30.16R WCI   9
LAFAYETTE      LGT SNOW  18  13  80 N8        30.20R VSB 1   WCI   8
TERRE HAUTE    CLOUDY    23  13  65 N10       30.18R WCI  12

$$

INZ030>032-037>040-046>048-054>057-064-065-262100-
CENTRAL INDIANA

CITY           SKY/WX    TMP DP  RH WIND       PRES   REMARKS
ANDERSON       CLOUDY    18   5  57 N12G17    30.15R WCI   5
CP ATTERBURY + CLOUDY    23  12  63 N12       30.14S WCI  12
COLUMBUS       CLOUDY    19   9  63 N15       30.14R WCI   5
FRANKFORT +    PTSUNNY   20  10  65 NW9       30.18R WCI  10
GREENWOOD *+   CLOUDY    19   7  58 N10       30.14R WCI   8
INDIANAPOLIS   CLOUDY    20   9  62 N14       30.14R WCI   7
-EAGLE CREEK   CLOUDY    19   8  62 N12       30.15R WCI   7
KOKOMO *+      MOSUNNY   19   9  63 N10       30.17R WCI   8
MARION +       CLOUDY    17   6  61 NE10      30.16R WCI   5
MT COMFORT *+  MOSUNNY   19   1  45 N13       30.14R WCI   7
SHELBYVILLE    CLOUDY    21   9  59 N14       30.13R WCI   8
ZIONSVILLE +   CLOUDY    19   8  63 N9        30.15R WCI   8

$$

INZ033-034-041-042-049-050-058-059-262100-
EAST CENTRAL INDIANA

CITY           SKY/WX    TMP DP  RH WIND       PRES   REMARKS
MUNCIE         CLOUDY    16   7  67 N13       30.14R WCI   2

$$

INZ060-061-067>069-081>083-085>088-262100-
SOUTHWEST INDIANA

CITY           SKY/WX    TMP DP  RH WIND       PRES   REMARKS
EVANSVILLE     CLOUDY    28  19  69 N12       30.17R WCI  18
HUNTINGBURG *+ MOSUNNY   27  18  69 NW16      30.14R WCI  14
WASHINGTON +   CLOUDY    26  11  54 N14       30.16R WCI  14

$$

INZ062-063-066-070>080-084-089>092-262100-
SOUTH CENTRAL AND SOUTHEAST INDIANA

CITY           SKY/WX    TMP DP  RH WIND       PRES   REMARKS
BLOOMINGTON    CLOUDY    23  13  65 N10       30.13R WCI  12
NORTH VERNON + CLOUDY    19  10  68 N12G17    30.12R WCI   7
SEYMOUR +      CLOUDY    23  12  63 N13       30.14R WCI  11

$$



USA.gov is the U.S. government's official web portal to all federal, state and local government web resources and services.